Norwegian Gem — C6VG8 — position and weather

sailwx.info

Track history (hours):
 
Tides and Currents Weather Stations Pressure Air Temp Water Temp Dewpoint Dewpoint Depression Visibility Wind Speed Wind Dir Waves Ship Positions

Norwegian Gem (Bahamas)

Last reported at 2018-May-26 10:00 UTC. Time now 2018-May-26 10:07 UTC.
Position N 40°35' W 074°02'.

Length 294 m; draft 8.6 m.

Type: Ship. MMSI: 309951000.

Date/timePositionNaut miles runAvg speedWind from/ knotsBaromVisibWave heightAir tempDewpointWater temp
2018-May-26 10:00N 40°35' W 074°02'714.6
2018-May-26 09:30N 40°30' W 073°56'3012.3
2018-May-26 07:05N 40°02' W 073°43'113.6
2018-May-26 07:00N 40°00' W 073°43'713.5
2018-May-26 06:30N 39°54' W 073°42'1413.5
2018-May-26 05:30N 39°40' W 073°40'713.5
2018-May-26 05:00N 39°34' W 073°40'713.4
2018-May-26 04:29N 39°27' W 073°40'813.6
2018-May-26 03:52N 39°18' W 073°40'513.6
2018-May-26 03:30N 39°13' W 073°40'713.7
2018-May-26 03:00N 39°07' W 073°40'1013.6
2018-May-26 02:14N 38°56' W 073°42'413.7
2018-May-26 01:58N 38°53' W 073°43'714.1
2018-May-26 01:30N 38°46' W 073°45'713.9
2018-May-26 00:59N 38°39' W 073°46'813.9
2018-May-26 00:25N 38°31' W 073°43'613.5
2018-May-25 23:58N 38°26' W 073°41'3216.1
2018-May-25 22:00N 37°54' W 073°36'4816.0 210 / 171015.9 5.4 21.2 25.0
2018-May-25 19:00N 37°06' W 073°36'12013.3 220 / 151018.710.8 24.0 22.0
2018-May-25 10:00N 35°06' W 073°36'6616.5 100 / 71020.7 5.4 25.3 28.0
2018-May-25 06:00N 34°00' W 073°36'17414.5 100 / 161020.510.8 25.0 27.0
2018-May-24 18:00N 31°06' W 073°48'15121.6 300 / 91020.410.8 29.0 27.0
2018-May-24 11:00N 28°48' W 075°00'9719.3 180 / 81020.3 5.4 25.5 28.0
2018-May-24 06:00N 27°24' W 075°54'138 3.8 140 / 151019.410.8 28.0 27.0
2018-May-22 18:00N 25°36' W 077°30'14812.3 070 / 251019.010.8 27.0 29.0
2018-May-22 06:00N 27°12' W 079°36'156 7.8 090 / 261017.410.8 27.0 27.0
2018-May-21 10:00N 29°48' W 079°42'8120.2 110 / 291019.0 5.4 25.4 28.0
2018-May-21 06:00N 30°54' W 078°48'17819.8 130 / 261020.310.8 28.0 27.0
2018-May-20 21:00N 33°30' W 077°06'5819.3 200 / 171021.1 5.4 24.8 27.0
2018-May-20 18:00N 34°12' W 076°18'12818.3 170 / 241021.710.8 23.0 22.0
2018-May-20 11:00N 36°00' W 074°54'8617.2 170 / 171021.7 5.4 20.3 23.0
2018-May-20 06:00N 37°24' W 074°30'10622.9 190 / 241020.210.8 19.0 16.0
2018-May-20 01:21N 39°08' W 074°01'719.5
2018-May-20 00:59N 39°15' W 073°58'1019.5
2018-May-20 00:30N 39°24' W 073°56'1019.2
2018-May-20 00:00N 39°33' W 073°54'1219.6
2018-May-19 23:24N 39°45' W 073°53'919.6
2018-May-19 22:58N 39°54' W 073°52'3318.8
2018-May-19 21:12N 40°27' W 073°49'313.1
2018-May-19 21:00N 40°28' W 073°52'816.4
2018-May-19 20:30N 40°32' W 074°01'815.9
2018-May-19 20:01N 40°40' W 074°03'612.4
2018-May-19 19:30N 40°46' W 074°00'0 0.5
2018-May-19 18:54N 40°46' W 073°60'0 0.0
2018-May-19 18:24N 40°46' W 073°60'0 0.0
2018-May-19 17:51N 40°46' W 073°60'0 0.0
2018-May-19 17:30N 40°46' W 073°60'0 0.0
2018-May-19 17:00N 40°46' W 073°60'0 0.0
2018-May-19 16:23N 40°46' W 073°60'0 0.0
2018-May-19 15:59N 40°46' W 073°60'0 0.0
2018-May-19 15:17N 40°46' W 073°60'0 0.0
2018-May-19 14:41N 40°46' W 073°60'0 0.0
2018-May-19 14:22N 40°46' W 073°60'0 0.0
2018-May-19 13:58N 40°46' W 073°60'0 0.0
2018-May-19 13:30N 40°46' W 073°60'1 1.2
2018-May-19 12:56N 40°46' W 074°01'4 9.0
2018-May-19 12:30N 40°42' W 074°02'5 9.7
2018-May-19 12:01N 40°37' W 074°03'611.1
2018-May-19 11:30N 40°32' W 074°01'510.9
2018-May-19 11:00N 40°29' W 073°54'4312.1
2018-May-19 07:28N 39°48' W 073°42'713.6
2018-May-19 06:55N 39°40' W 073°43'2914.8
2018-May-19 05:00N 39°12' W 073°48'15313.9 070 / 271024.6 2.2 10.4 14.0
2018-May-18 18:00N 36°42' W 074°24'21416.4 220 / 191020.0 5.4 21.7 18.0
2018-May-18 05:00N 33°12' W 075°12'18416.7 170 / 251019.0 5.4 26.2 27.0
2018-May-17 18:00N 30°12' W 075°54'20115.5 160 / 171019.1 5.4 24.7 27.0
2018-May-17 05:00N 26°54' W 076°36'   130 / 251017.6 5.4 25.1 27.0
Track history (hours):
 
Tides and Currents Weather Stations Pressure Air Temp Water Temp Dewpoint Dewpoint Depression Visibility Wind Speed Wind Dir Waves Ship Positions

Norwegian Gem (Bahamas)

Last reported at 2018-May-26 10:00 UTC. Time now 2018-May-26 10:07 UTC.
Position N 40°35' W 074°02'.

Length 294 m; draft 8.6 m.

Type: Ship. MMSI: 309951000.

Date/timePositionNaut miles runAvg speedWind from/ knotsBaromVisibWave heightAir tempDewpointWater temp
2018-May-26 10:00N 40°35' W 074°02'714.6
2018-May-26 09:30N 40°30' W 073°56'3012.3
2018-May-26 07:05N 40°02' W 073°43'113.6
2018-May-26 07:00N 40°00' W 073°43'713.5
2018-May-26 06:30N 39°54' W 073°42'1413.5
2018-May-26 05:30N 39°40' W 073°40'713.5
2018-May-26 05:00N 39°34' W 073°40'713.4
2018-May-26 04:29N 39°27' W 073°40'813.6
2018-May-26 03:52N 39°18' W 073°40'513.6
2018-May-26 03:30N 39°13' W 073°40'713.7
2018-May-26 03:00N 39°07' W 073°40'1013.6
2018-May-26 02:14N 38°56' W 073°42'413.7
2018-May-26 01:58N 38°53' W 073°43'714.1
2018-May-26 01:30N 38°46' W 073°45'713.9
2018-May-26 00:59N 38°39' W 073°46'813.9
2018-May-26 00:25N 38°31' W 073°43'613.5
2018-May-25 23:58N 38°26' W 073°41'3216.1
2018-May-25 22:00N 37°54' W 073°36'4816.0 210 / 171015.9 5.4 21.2 25.0
2018-May-25 19:00N 37°06' W 073°36'12013.3 220 / 151018.710.8 24.0 22.0
2018-May-25 10:00N 35°06' W 073°36'6616.5 100 / 71020.7 5.4 25.3 28.0
2018-May-25 06:00N 34°00' W 073°36'17414.5 100 / 161020.510.8 25.0 27.0
2018-May-24 18:00N 31°06' W 073°48'15121.6 300 / 91020.410.8 29.0 27.0
2018-May-24 11:00N 28°48' W 075°00'9719.3 180 / 81020.3 5.4 25.5 28.0
2018-May-24 06:00N 27°24' W 075°54'138 3.8 140 / 151019.410.8 28.0 27.0
2018-May-22 18:00N 25°36' W 077°30'14812.3 070 / 251019.010.8 27.0 29.0
2018-May-22 06:00N 27°12' W 079°36'156 7.8 090 / 261017.410.8 27.0 27.0
2018-May-21 10:00N 29°48' W 079°42'8120.2 110 / 291019.0 5.4 25.4 28.0
2018-May-21 06:00N 30°54' W 078°48'17819.8 130 / 261020.310.8 28.0 27.0
2018-May-20 21:00N 33°30' W 077°06'5819.3 200 / 171021.1 5.4 24.8 27.0
2018-May-20 18:00N 34°12' W 076°18'12818.3 170 / 241021.710.8 23.0 22.0
2018-May-20 11:00N 36°00' W 074°54'8617.2 170 / 171021.7 5.4 20.3 23.0
2018-May-20 06:00N 37°24' W 074°30'10622.9 190 / 241020.210.8 19.0 16.0
2018-May-20 01:21N 39°08' W 074°01'719.5
2018-May-20 00:59N 39°15' W 073°58'1019.5
2018-May-20 00:30N 39°24' W 073°56'1019.2
2018-May-20 00:00N 39°33' W 073°54'1219.6
2018-May-19 23:24N 39°45' W 073°53'919.6
2018-May-19 22:58N 39°54' W 073°52'3318.8
2018-May-19 21:12N 40°27' W 073°49'313.1
2018-May-19 21:00N 40°28' W 073°52'816.4
2018-May-19 20:30N 40°32' W 074°01'815.9
2018-May-19 20:01N 40°40' W 074°03'612.4
2018-May-19 19:30N 40°46' W 074°00'0 0.5
2018-May-19 18:54N 40°46' W 073°60'0 0.0
2018-May-19 18:24N 40°46' W 073°60'0 0.0
2018-May-19 17:51N 40°46' W 073°60'0 0.0
2018-May-19 17:30N 40°46' W 073°60'0 0.0
2018-May-19 17:00N 40°46' W 073°60'0 0.0
2018-May-19 16:23N 40°46' W 073°60'0 0.0
2018-May-19 15:59N 40°46' W 073°60'0 0.0
2018-May-19 15:17N 40°46' W 073°60'0 0.0
2018-May-19 14:41N 40°46' W 073°60'0 0.0
2018-May-19 14:22N 40°46' W 073°60'0 0.0
2018-May-19 13:58N 40°46' W 073°60'0 0.0
2018-May-19 13:30N 40°46' W 073°60'1 1.2
2018-May-19 12:56N 40°46' W 074°01'4 9.0
2018-May-19 12:30N 40°42' W 074°02'5 9.7
2018-May-19 12:01N 40°37' W 074°03'611.1
2018-May-19 11:30N 40°32' W 074°01'510.9
2018-May-19 11:00N 40°29' W 073°54'4312.1
2018-May-19 07:28N 39°48' W 073°42'713.6
2018-May-19 06:55N 39°40' W 073°43'2914.8
2018-May-19 05:00N 39°12' W 073°48'15313.9 070 / 271024.6 2.2 10.4 14.0
2018-May-18 18:00N 36°42' W 074°24'21416.4 220 / 191020.0 5.4 21.7 18.0
2018-May-18 05:00N 33°12' W 075°12'18416.7 170 / 251019.0 5.4 26.2 27.0
2018-May-17 18:00N 30°12' W 075°54'20115.5 160 / 171019.1 5.4 24.7 27.0
2018-May-17 05:00N 26°54' W 076°36'   130 / 251017.6 5.4 25.1 27.0

Dump ship's entire track history